Temperature
21 21 20 20 20 19 19 18 18 18 17 17 17 17 17 16 16 16 16 16 16 16 16 15 15 15 15 15 15 15 15 15 15 15 15 14 14 14 14 14 14 14 13
21 21 20 20 19 19 19 18 18 18 17 17 17 17 16 16 16 16 16 16 16 16 15 15 15 15 15 15 15 15 15 14 14 14 14 14 14 14 14 14 14 13 13
21 21 20 20 19 19 19 18 18 18 17 17 17 17 16 16 16 16 16 16 15 15 15 15 15 15 15 15 15 14 14 14 14 14 14 14 14 14 14 14 14 13 13
21 20 20 19 19 19 18 18 18 18 17 17 17 17 16 16 16 16 16 15 15 15 15 15 15 15 15 15 14 14 14 14 14 14 14 14 14 14 13 13 13 13 13
20 20 19 19 19 18 18 18 18 17 17 17 17 16 16 16 16 16 15 15 15 15 15 15 15 15 15 14 14 14 14 14 14 14 14 14 14 14 13 13 13 13 13
20 19 19 19 19 18 18 18 18 17 17 17 16 16 16 16 16 15 15 15 15 15 15 15 15 14 14 14 14 14 14 14 14 14 14 13 13 13 13 13 13 13 13
19 19 19 18 18 18 18 17 17 17 17 16 16 16 16 16 15 15 15 15 15 15 15 14 14 14 14 14 14 14 14 14 13 13 13 13 13 13 13 13 13 13 13
19 19 18 18 18 18 17 17 17 17 16 16 16 16 16 15 15 15 15 15 15 14 14 14 14 14 14 14 14 14 14 13 13 13 13 13 13 13 13 13 13 12 12
18 18 18 17 17 17 17 17 16 16 16 16 16 16 15 15 15 15 15 14 14 14 14 14 14 14 14 14 14 14 14 13 13 13 13 13 13 13 13 13 13 12 12
18 18 17 17 17 17 16 16 16 16 16 16 15 15 15 15 15 15 14 14 14 14 14 14 14 14 14 14 13 13 13 13 13 13 13 13 13 12 12 12 12 12 12
17 17 17 16 16 16 16 16 15 15 15 15 15 15 15 14 14 14 14 14 14 13 13 13 13 13 13 13 13 13 13 13 13 12 12 12 12 12 12 12 12 12 12
17 17 16 16 16 16 15 15 15 15 15 15 14 14 14 14 14 14 14 13 13 13 13 13 13 13 13 13 13 13 13 13 12 12 12 12 12 12 12 12 12 12 12
16 16 16 16 15 15 15 15 14 14 14 14 14 14 14 13 13 13 13 13 13 13 13 13 13 13 13 13 12 12 12 12 12 12 12 12 12 12 12 12 12 12 12
16 16 15 15 15 15 15 14 14 14 14 13 13 13 13 13 13 13 13 13 13 13 12 12 12 12 12 12 12 12 12 12 12 11 11 11 11 11 12 11 11 11 11
16 15 15 15 15 14 14 14 14 13 13 13 13 13 13 13 12 12 12 12 12 12 12 12 12 12 12 12 12 12 11 11 11 11 11 11 11 11 11 11 11 11 11
15 15 15 14 14 14 14 13 13 13 13 13 12 12 12 12 12 12 12 12 12 12 12 12 11 11 11 11 11 11 11 11 11 11 11 11 11 11 10 11 11 10 10
15 14 14 14 14 13 13 13 13 12 12 12 12 12 12 12 12 11 11 11 11 11 11 11 11 11 11 11 11 11 11 10 10 10 10 10 10 10 10 10 10 10 10
14 13 13 13 13 13 13 12 12 12 12 12 12 11 11 11 11 11 11 11 11 11 11 10 10 11 10 10 10 10 10 10 10 10 10 10 10 10 10 10 10 10 10
13 13 13 12 12 12 12 11 11 11 11 11 11 11 11 11 11 10 10 10 10 10 10 10 10 10 10 10 10 10 10 9 9 9 9 10 10 10 10 9 9 9 9
13 12 12 12 12 11 11 11 11 11 11 11 11 10 10 10 10 10 10 10 10 10 9 9 9 9 9 9 9 9 9 9 9 9 9 9 9 9 9 9 9 9 9
12 11 11 11 11 11 11 11 10 10 10 10 10 10 10 9 9 9 9 9 9 9 9 9 9 9 9 9 9 9 9 8 8 8 9 8 8 8 8 8 8 8 9
11 11 11 10 10 10 10 10 10 10 9 9 9 9 9 9 9 9 9 9 9 8 8 8 8 8 8 8 8 8 8 8 8 8 8 8 8 8 8 8 8 8 8
11 10 10 10 10 10 9 9 9 9 9 9 8 8 8 8 8 8 8 8 8 8 8 8 8 8 8 8 8 8 7 7 7 7 7 7 7 7 7 7 8 7 7
10 10 9 9 9 9 9 9 9 8 8 8 8 8 8 8 8 8 8 7 7 7 7 7 7 7 7 7 7 7 7 7 7 7 7 7 7 7 7 7 7 7 7
9 9 9 8 8 8 8 8 8 8 8 7 7 7 7 7 7 7 7 7 7 7 7 7 7 7 7 7 6 6 6 6 6 6 6 6 6 6 6 6 6 6 6
9 8 8 8 8 8 8 8 7 7 7 7 7 7 7 7 6 6 6 6 6 6 6 6 6 6 6 6 6 6 6 6 6 6 6 6 6 6 6 6 6 6 6
Wind_Speed
6 6 6 5 4 4 5 6 4 3 4 2 2 2 2 2 2 2 3 3 3 3 3 2 2 2 2 2 2 2 2 2 1 2 2 2 1 3 2 2 2 3 4
7 6 6 5 4 4 4 4 4 4 4 3 2 2 2 1 2 2 3 3 3 3 2 2 2 2 2 2 2 2 1 1 1 1 1 1 2 2 1 2 2 2 3
5 6 6 5 5 4 4 4 4 4 4 4 2 2 2 1 2 1 2 2 3 3 3 2 1 1 2 1 1 1 1 1 1 1 1 1 0 1 1 1 1 1 1
4 4 5 5 5 3 3 4 4 4 3 3 3 2 2 1 1 1 1 1 2 2 3 2 2 1 2 1 1 1 1 1 0 1 1 1 2 1 1 2 1 1 1
4 4 4 5 5 4 3 3 3 3 3 3 3 2 1 0 1 1 1 1 1 1 2 2 1 1 1 1 1 2 1 1 0 0 1 1 0 0 1 1 1 1 1
4 4 4 4 4 4 3 3 2 2 3 2 2 2 1 1 1 1 1 1 1 0 1 1 1 1 1 1 1 1 1 0 1 0 0 0 0 1 1 1 1 1 2
4 4 4 4 4 4 4 3 3 2 2 2 1 1 1 1 1 1 0 0 0 0 0 1 1 1 1 1 1 1 0 0 0 0 1 1 1 1 1 0 1 1 1
3 3 3 3 3 4 3 4 3 2 1 1 1 1 1 1 1 1 1 1 1 1 1 1 1 1 1 1 1 0 0 0 1 1 1 1 2 1 0 0 1 1 1
3 3 3 3 3 3 2 2 3 3 2 1 1 0 0 1 1 1 1 1 1 0 0 1 1 1 1 1 1 1 1 1 1 1 1 1 1 1 1 0 1 2 1
3 3 3 2 2 2 2 3 3 2 2 0 1 1 1 1 0 1 0 0 0 1 0 0 0 0 1 0 1 1 1 1 1 1 1 1 1 1 1 1 1 1 2
3 3 3 3 2 2 2 1 1 2 1 1 1 1 1 1 1 1 1 1 1 1 1 1 1 0 0 0 1 0 1 1 1 1 1 2 1 0 1 1 1 2 2
3 2 3 2 1 1 2 2 2 0 1 1 1 1 2 1 1 1 1 1 1 1 2 1 1 1 1 1 1 1 2 2 2 2 2 2 1 1 1 1 2 2 2
3 2 2 1 1 2 2 2 1 1 1 0 1 1 2 2 1 2 2 2 2 1 2 1 1 1 1 1 1 1 2 3 3 3 2 2 1 1 1 1 2 2 3
3 2 1 1 1 2 2 1 1 1 2 1 1 2 2 2 1 2 2 2 2 2 2 2 2 2 2 1 1 1 2 3 3 3 3 2 2 3 2 2 2 2 2
2 2 1 1 1 1 1 1 1 1 1 1 2 2 3 2 1 2 2 2 2 2 2 2 2 2 2 1 1 2 3 3 3 3 3 3 2 3 2 3 3 2 2
1 1 1 1 1 1 1 1 1 1 1 1 2 2 3 2 1 1 1 2 2 2 2 2 2 2 2 2 2 3 3 3 4 4 4 3 3 4 4 5 4 3 3
3 2 2 2 2 2 2 2 2 2 2 2 2 3 2 2 2 2 2 2 2 2 2 3 2 2 2 2 3 4 3 4 4 4 4 5 4 3 3 4 4 5 5
3 3 4 4 3 3 3 3 3 3 2 3 3 3 2 2 2 2 2 2 2 2 2 3 3 2 3 2 2 4 4 5 5 5 5 5 4 4 3 3 4 4 4
3 3 3 3 3 3 3 3 3 3 3 3 3 3 3 3 3 3 3 3 2 3 3 3 3 3 3 3 3 3 3 4 5 5 4 3 3 4 4 3 4 4 4
3 3 4 3 3 3 3 2 3 3 3 3 3 4 3 3 3 3 4 3 3 3 3 3 3 2 2 3 3 3 2 3 4 4 3 3 3 3 3 3 4 5 4
4 3 3 3 3 3 3 3 3 3 3 3 3 4 3 3 3 3 3 3 3 3 3 3 3 3 3 3 4 3 2 3 4 3 2 2 3 4 4 4 4 6 4
3 3 3 3 3 3 3 3 3 4 4 3 3 4 4 4 4 3 3 3 3 4 4 3 3 2 2 3 4 4 4 4 3 3 2 2 4 6 6 5 6 6 4
2 2 3 3 3 3 3 4 3 4 4 4 3 4 4 3 3 3 3 3 3 3 3 3 3 3 2 2 3 3 4 5 3 3 4 5 5 6 5 6 6 5 4
2 3 3 3 4 4 4 4 4 4 4 4 4 3 3 3 3 3 2 2 3 3 4 4 3 3 2 2 2 2 3 3 3 3 4 5 6 5 5 5 4 4 4
2 2 3 3 4 4 4 4 5 5 5 5 4 3 3 3 3 3 3 4 3 4 4 4 4 3 3 4 3 3 3 3 4 3 3 3 3 2 2 3 3 3 3
2 2 3 3 4 4 4 4 5 5 6 5 4 3 3 3 2 3 4 5 5 5 5 6 5 4 5 5 5 5 5 5 5 3 3 3 3 3 3 3 3 3 3
Wind_Direction
147 136 128 122 118 116 118 125 130 119 109 95 82 91 74 77 86 79 75 55 48 53 66 60 51 54 60 64 69 58 32 37 45 64 45 10 56 87 89 71 79 77 96
145 133 127 123 113 111 116 118 116 108 105 101 94 108 112 85 92 66 54 50 50 46 63 76 81 62 66 59 60 69 45 7 40 85 90 40 14 5 105 96 95 88 101
135 137 134 127 122 116 113 115 108 108 114 115 102 83 75 63 67 73 69 43 48 40 35 59 83 97 100 87 83 98 80 15 356 40 89 109 150 318 354 117 114 97 82
110 123 139 135 130 123 121 113 109 103 109 119 115 110 106 93 103 105 99 61 56 43 50 33 56 57 83 103 101 85 81 98 308 337 10 90 128 130 332 320 31 106 133
120 125 125 132 133 125 114 112 114 111 109 121 128 135 128 106 79 83 88 92 66 58 59 35 17 36 85 111 83 71 65 110 176 338 347 354 21 291 160 267 315 332 297
124 122 121 125 124 122 124 127 124 114 115 119 130 146 148 109 88 70 94 97 106 95 65 60 21 28 49 87 93 102 81 9 339 12 34 47 120 293 221 229 261 270 272
122 122 122 123 123 126 141 141 126 109 105 110 114 145 173 165 161 156 144 166 146 345 263 74 40 23 25 63 94 127 175 173 248 244 297 290 263 261 259 190 264 294 279
107 121 122 123 126 127 142 145 140 135 124 144 201 201 168 152 183 167 160 190 207 212 215 123 119 70 67 80 96 161 252 238 228 243 242 280 296 317 310 171 154 311 298
92 98 111 117 122 126 136 151 153 150 150 227 257 173 280 184 171 188 183 203 205 229 261 126 133 149 93 124 151 175 232 240 235 247 225 250 278 292 301 250 172 174 255
91 93 97 98 99 123 154 170 170 153 139 192 291 308 260 276 210 142 196 290 258 259 303 253 69 88 102 69 153 186 238 231 225 220 213 234 260 283 284 275 266 209 201
101 83 81 86 82 80 95 119 146 151 165 216 265 303 296 251 244 195 205 240 256 269 270 279 230 214 140 147 110 201 271 262 267 260 232 240 237 259 277 288 280 265 230
91 88 83 75 93 106 97 80 58 71 185 243 287 284 291 250 249 254 248 226 234 247 259 257 258 258 243 225 177 248 255 259 260 266 259 257 268 234 240 252 269 271 253
91 79 87 82 95 102 95 95 72 29 20 276 276 292 299 281 260 251 255 247 226 233 262 271 272 267 247 239 224 252 265 263 259 252 245 241 245 259 258 240 254 272 277
98 76 54 71 85 88 93 95 75 42 7 344 301 266 274 273 272 261 254 260 240 229 244 246 257 269 275 248 227 245 269 265 266 260 249 226 211 221 239 242 244 260 285
84 71 53 59 75 61 68 78 66 43 342 337 328 321 307 284 262 266 268 266 262 270 261 253 249 253 258 261 296 272 280 270 270 269 261 249 237 230 242 254 250 246 254
43 40 42 60 79 58 20 30 17 354 340 324 315 329 329 322 305 286 278 279 267 266 271 273 263 264 275 276 284 289 275 272 266 269 267 256 242 247 256 263 258 237 231
16 4 1 21 25 22 24 13 355 356 344 327 327 332 328 327 327 314 300 276 274 278 271 267 261 260 261 258 272 283 273 270 264 258 261 271 260 242 234 254 266 264 247
6 7 3 9 12 20 13 360 359 347 334 339 337 338 337 326 327 316 289 276 278 275 272 270 260 253 256 264 285 286 265 263 268 261 253 254 250 237 229 236 248 257 259
12 9 6 359 356 2 2 358 346 343 350 341 332 333 332 325 320 308 297 281 274 279 275 269 260 250 247 252 267 281 268 266 270 268 268 265 265 247 243 240 248 257 270
23 15 1 351 351 352 357 351 332 337 338 329 328 325 323 315 305 298 292 295 285 270 264 272 269 259 261 263 262 279 270 274 278 274 270 286 290 276 261 247 249 251 256
17 8 1 351 351 351 340 327 333 335 331 331 329 321 316 305 299 299 300 298 293 281 266 266 273 270 264 257 248 270 275 275 282 282 280 283 302 297 280 271 252 248 250
10 1 356 350 346 339 333 327 338 329 326 323 319 313 306 304 309 301 297 293 289 283 273 261 265 260 259 254 246 258 279 302 293 292 283 279 299 298 288 277 268 267 260
357 357 355 343 335 338 339 332 332 328 319 315 309 301 302 303 302 294 292 295 296 287 282 267 259 261 252 252 253 261 285 295 294 291 294 296 297 297 289 279 276 267 253
356 353 343 338 339 342 344 336 327 318 312 305 300 298 301 305 305 299 286 283 282 282 282 278 273 273 269 262 249 258 277 275 285 291 299 296 289 281 275 280 269 252 241
336 341 331 328 327 332 333 333 327 318 310 306 305 304 300 291 294 302 293 281 272 268 273 274 270 268 265 264 271 275 280 281 275 288 293 294 287 279 275 272 264 253 241
330 327 324 327 326 325 326 332 326 320 317 315 312 306 302 295 285 283 302 301 280 289 284 281 276 277 267 265 266 271 278 281 278 285 269 273 274 274 271 265 262 258 246
Height
1522 1523 1525 1526 1528 1529 1529 1530 1531 1531 1532 1532 1533 1533 1533 1534 1534 1533 1533 1534 1534 1534 1534 1534 1534 1534 1534 1534 1534 1534 1534 1534 1534 1534 1534 1534 1534 1535 1534 1534 1534 1534 1533
1520 1522 1523 1525 1526 1528 1529 1530 1530 1531 1531 1532 1532 1533 1533 1534 1534 1534 1534 1534 1534 1534 1534 1534 1534 1534 1534 1534 1534 1534 1534 1534 1534 1534 1534 1534 1535 1535 1535 1535 1534 1534 1534
1518 1520 1522 1524 1525 1527 1528 1529 1530 1530 1531 1531 1532 1532 1533 1533 1533 1533 1533 1533 1533 1533 1533 1534 1533 1533 1533 1533 1533 1533 1534 1534 1534 1534 1535 1535 1535 1535 1535 1535 1535 1534 1534
1517 1519 1521 1523 1524 1526 1527 1528 1529 1529 1530 1530 1531 1531 1531 1532 1532 1532 1532 1532 1532 1532 1532 1532 1533 1532 1532 1533 1533 1533 1533 1533 1533 1534 1534 1535 1535 1535 1535 1535 1535 1535 1534
1516 1518 1520 1521 1523 1524 1526 1527 1528 1528 1529 1529 1530 1530 1531 1531 1531 1531 1531 1531 1531 1531 1531 1531 1531 1531 1531 1532 1532 1532 1532 1532 1532 1533 1533 1533 1533 1534 1534 1534 1534 1534 1534
1516 1517 1519 1520 1521 1522 1524 1525 1526 1527 1527 1528 1528 1529 1529 1530 1530 1530 1530 1530 1530 1530 1530 1530 1530 1530 1530 1530 1531 1531 1531 1531 1531 1532 1532 1532 1532 1532 1533 1532 1532 1532 1532
1515 1516 1517 1518 1520 1521 1522 1523 1524 1525 1525 1526 1526 1527 1527 1528 1528 1528 1528 1528 1528 1528 1529 1529 1529 1529 1529 1529 1529 1529 1529 1530 1530 1530 1530 1531 1531 1531 1531 1531 1531 1531 1531
1514 1515 1516 1517 1518 1519 1520 1521 1522 1523 1524 1524 1525 1526 1526 1526 1526 1526 1526 1526 1526 1526 1527 1527 1527 1527 1527 1527 1527 1527 1528 1528 1528 1528 1528 1529 1529 1529 1529 1530 1530 1529 1529
1513 1514 1515 1516 1517 1517 1518 1519 1520 1520 1521 1522 1523 1523 1524 1524 1524 1524 1525 1524 1525 1525 1525 1525 1525 1525 1525 1525 1525 1525 1526 1526 1526 1526 1527 1527 1527 1527 1527 1528 1528 1528 1527
1513 1513 1514 1515 1515 1516 1517 1517 1517 1518 1519 1520 1520 1521 1521 1521 1522 1522 1522 1522 1522 1522 1522 1523 1523 1523 1523 1523 1523 1523 1523 1524 1524 1524 1524 1524 1525 1525 1525 1525 1526 1526 1526
1512 1513 1514 1514 1514 1514 1515 1515 1516 1516 1517 1517 1518 1518 1518 1519 1519 1519 1519 1519 1520 1520 1520 1520 1520 1520 1521 1520 1520 1520 1521 1521 1521 1521 1522 1522 1522 1522 1522 1522 1522 1523 1523
1511 1512 1512 1513 1513 1513 1513 1513 1514 1514 1514 1515 1515 1515 1515 1516 1516 1516 1516 1516 1517 1517 1517 1517 1517 1518 1518 1518 1518 1518 1518 1518 1518 1518 1519 1519 1519 1519 1519 1519 1519 1519 1520
1511 1511 1511 1512 1512 1512 1512 1512 1512 1512 1512 1512 1512 1512 1512 1512 1512 1513 1513 1513 1513 1514 1514 1514 1515 1515 1515 1515 1515 1515 1515 1515 1515 1515 1516 1516 1516 1516 1516 1516 1516 1516 1516
1510 1510 1510 1511 1511 1511 1511 1510 1510 1510 1510 1509 1509 1509 1509 1509 1509 1510 1510 1510 1510 1510 1511 1511 1511 1511 1511 1512 1512 1511 1511 1512 1512 1512 1513 1513 1513 1513 1513 1513 1513 1513 1513
1508 1509 1509 1509 1509 1509 1509 1509 1509 1508 1508 1507 1506 1506 1506 1506 1506 1506 1506 1506 1507 1507 1507 1507 1507 1508 1508 1508 1508 1508 1508 1508 1508 1508 1509 1509 1509 1509 1509 1509 1509 1509 1509
1507 1508 1508 1508 1508 1508 1508 1507 1507 1506 1505 1505 1504 1503 1503 1502 1502 1503 1503 1503 1503 1503 1503 1503 1503 1504 1504 1504 1504 1504 1504 1504 1504 1504 1504 1505 1505 1505 1505 1506 1506 1506 1505
1506 1506 1506 1506 1506 1506 1506 1505 1505 1504 1503 1502 1502 1501 1500 1499 1499 1499 1499 1499 1499 1499 1499 1499 1500 1500 1500 1500 1500 1500 1500 1500 1500 1500 1500 1500 1500 1501 1501 1501 1501 1501 1501
1505 1505 1505 1505 1504 1504 1504 1503 1502 1502 1501 1500 1499 1498 1497 1496 1495 1495 1495 1495 1495 1495 1495 1495 1495 1495 1496 1496 1496 1495 1495 1495 1495 1496 1496 1496 1496 1496 1496 1496 1496 1496 1496
1504 1504 1504 1503 1503 1503 1502 1501 1500 1499 1498 1497 1496 1495 1494 1493 1492 1492 1492 1492 1492 1491 1491 1491 1491 1491 1491 1491 1491 1491 1491 1491 1491 1491 1491 1491 1491 1491 1491 1491 1491 1491 1491
1504 1503 1503 1502 1502 1501 1500 1499 1498 1497 1496 1494 1493 1492 1490 1490 1489 1489 1488 1488 1488 1487 1487 1487 1487 1487 1486 1487 1487 1486 1486 1486 1486 1486 1486 1486 1486 1486 1486 1486 1486 1485 1485
1502 1501 1501 1500 1500 1499 1498 1496 1496 1495 1493 1492 1491 1489 1488 1487 1486 1486 1485 1485 1484 1484 1483 1482 1482 1482 1482 1482 1482 1482 1482 1482 1481 1481 1480 1480 1481 1481 1481 1481 1481 1481 1481
1501 1500 1499 1498 1498 1497 1496 1494 1493 1492 1491 1490 1488 1487 1485 1484 1483 1483 1482 1481 1480 1479 1479 1478 1478 1478 1478 1478 1478 1478 1478 1478 1477 1476 1475 1475 1475 1476 1476 1475 1475 1476 1476
1499 1498 1497 1496 1495 1495 1494 1493 1491 1490 1488 1487 1485 1484 1482 1481 1480 1479 1478 1477 1476 1475 1474 1474 1473 1473 1473 1473 1474 1474 1474 1473 1473 1472 1471 1470 1470 1470 1470 1470 1469 1470 1470
1497 1496 1495 1494 1493 1492 1491 1490 1489 1487 1486 1484 1482 1481 1479 1478 1477 1476 1475 1473 1472 1471 1470 1470 1469 1469 1469 1469 1469 1468 1469 1469 1468 1467 1466 1466 1465 1465 1464 1464 1464 1464 1464
1496 1495 1493 1492 1491 1490 1489 1488 1486 1484 1482 1481 1479 1477 1476 1474 1473 1471 1471 1469 1468 1468 1467 1466 1465 1464 1464 1464 1464 1464 1464 1463 1463 1462 1461 1460 1460 1459 1459 1459 1458 1458 1458
1493 1492 1491 1490 1489 1487 1486 1485 1483 1481 1479 1477 1476 1474 1472 1470 1469 1467 1466 1465 1464 1463 1463 1462 1462 1460 1460 1460 1460 1459 1459 1459 1459 1458 1456 1455 1455 1455 1454 1454 1453 1453 1453